Temperature
20 20 21 21 21 22 22 22 23 22 21 18 16 15 12 11 10 10 10 10 10 9 9 9 9 9 9 9 8 8 8 8 7 7 6 6 6 5 5 5 4 4 4 3
19 20 20 20 20 20 20 21 21 21 19 18 16 14 12 11 11 10 9 9 9 9 9 8 8 8 8 8 7 7 7 6 6 6 6 5 5 4 4 4 4 3 3 2
19 19 19 19 18 19 19 19 19 19 18 17 15 13 12 11 11 10 9 8 8 8 8 8 7 7 7 7 6 6 6 5 5 5 5 4 4 4 3 3 2 2 2 2
18 18 17 17 17 17 17 17 17 17 16 15 12 9 9 10 10 9 8 8 8 7 7 7 7 6 6 6 5 5 5 4 4 4 4 3 3 3 2 2 2 1 1 1
17 17 18 17 16 16 16 16 15 14 13 11 10 10 8 8 8 8 8 7 7 7 7 6 6 6 5 5 5 4 4 4 4 3 3 3 3 2 2 2 1 1 1 0
16 16 15 15 16 15 16 15 14 14 13 12 12 12 8 7 7 7 7 7 6 6 6 5 5 5 5 4 4 4 3 3 3 3 3 2 2 2 1 1 1 1 0 -0
16 15 15 14 15 16 15 13 13 13 12 12 11 9 7 6 6 6 6 6 5 5 5 5 5 4 4 4 3 3 3 3 3 3 2 2 1 1 1 1 1 0 0 -0
15 14 13 13 15 14 12 12 12 12 11 9 7 6 6 5 5 5 5 5 5 5 4 4 4 4 4 3 3 3 3 3 3 2 3 2 1 1 1 1 1 1 0 -0
14 13 12 12 12 11 12 12 12 11 9 8 6 5 5 5 5 5 4 4 4 4 4 4 4 4 4 3 3 3 3 3 3 2 2 2 2 2 2 1 1 1 1 0
14 14 13 12 12 11 11 11 11 10 9 8 6 5 5 5 4 4 4 4 4 4 4 4 4 4 4 4 4 4 3 3 3 3 2 2 2 2 2 2 1 1 0 -0
14 14 13 12 11 10 10 10 10 9 9 7 6 5 5 4 4 4 4 4 4 5 5 5 4 4 4 4 4 3 3 3 3 3 3 2 2 2 2 1 0 0 -0 -1
14 12 12 11 9 9 9 9 9 8 7 7 6 5 5 4 4 4 5 5 5 5 5 5 5 4 4 4 4 3 3 3 4 3 3 3 3 2 1 1 1 0 -0 -1
11 10 9 9 8 7 8 8 7 7 7 6 5 5 5 4 5 5 5 5 5 5 5 5 4 4 4 4 4 4 4 4 4 4 3 3 3 3 2 1 0 -0 -1 -1
8 8 8 8 7 6 6 6 6 6 6 5 5 5 5 5 5 5 5 5 5 5 5 5 5 4 4 4 4 4 4 4 4 4 3 3 3 3 2 2 1 0 -1 -1
7 7 7 6 6 6 6 6 5 5 5 5 5 5 5 5 5 5 5 5 5 5 5 5 5 4 4 4 4 4 4 4 4 4 4 3 3 3 2 2 1 0 -0 -1
7 7 6 6 5 5 5 5 5 5 5 5 5 5 6 6 6 5 5 5 5 5 5 5 5 4 4 4 4 4 4 3 3 4 4 3 3 3 2 1 1 -0 -1 -1
7 7 6 6 5 5 5 5 5 5 5 6 6 6 6 6 6 5 5 5 5 5 4 4 4 4 4 4 4 5 4 4 3 4 3 3 3 2 2 1 0 -0 -1 -1
8 7 7 6 6 6 5 6 6 6 6 6 6 6 6 6 6 5 5 5 5 5 4 4 4 4 4 4 4 4 4 4 4 3 3 2 2 2 1 1 0 -0 -1 -1
7 7 6 6 6 6 6 6 7 7 6 6 6 6 6 6 5 5 5 5 5 5 4 4 4 4 4 3 4 4 4 4 3 3 2 1 2 1 1 1 0 -0 -0 -1
7 7 7 7 7 7 7 7 7 7 7 7 6 6 6 5 5 5 5 5 5 4 4 4 4 4 3 3 3 4 4 3 3 3 2 2 2 1 1 1 1 0 -0 -0
7 7 7 7 7 7 7 7 7 7 7 7 6 6 5 5 5 5 6 6 4 4 4 4 4 3 3 3 3 3 3 3 2 2 2 2 2 1 1 1 0 0 -0 -0
7 7 7 7 7 7 7 7 7 7 7 6 6 6 5 5 5 5 5 5 4 4 5 4 3 3 3 3 3 3 3 2 2 2 2 1 1 1 1 0 0 -0 -0 -0
7 7 7 7 7 7 7 7 7 7 6 6 6 6 6 6 6 6 6 5 5 4 4 4 3 3 3 3 3 3 2 2 2 2 1 1 1 1 0 -0 -0 -0 -0 -0
7 7 7 7 7 7 7 7 7 7 7 7 6 6 6 6 6 6 5 5 4 4 4 3 3 3 3 3 3 3 2 2 2 2 1 1 1 0 0 -0 -0 -1 -0 -0
7 7 7 7 7 8 7 7 7 7 7 7 6 6 6 6 6 6 5 5 4 5 4 4 4 3 4 4 3 3 2 1 1 1 1 1 1 0 -0 -0 -0 -0 -0 -0
7 7 7 7 8 8 8 7 7 7 7 7 7 7 6 6 6 5 5 5 5 5 5 4 4 4 4 4 3 2 2 2 1 1 1 0 0 -0 -0 -0 -0 -0 -0 -0
7 7 7 7 8 8 8 8 8 8 8 8 7 7 7 6 6 6 6 6 6 6 5 5 5 4 4 4 3 2 2 1 1 1 1 0 0 0 -0 -0 -0 -0 -0 -0
Wind_Speed
3 4 3 3 2 0 2 4 5 2 6 11 12 12 12 11 12 12 11 11 11 10 10 11 11 12 12 13 13 13 14 15 14 14 13 12 12 11 10 8 7 5 4 3
3 1 1 1 3 3 3 3 1 4 4 9 12 12 11 11 12 12 11 11 10 10 11 11 11 11 11 12 12 12 14 13 13 12 12 11 10 9 8 6 5 4 3 2
6 4 6 5 3 5 3 3 3 2 3 11 11 10 9 9 10 11 11 11 10 10 10 10 9 10 11 11 11 12 12 12 11 11 10 9 8 7 6 5 4 3 3 3
5 5 9 2 5 5 4 4 6 4 7 10 13 13 12 9 10 11 11 11 10 10 10 10 10 10 11 11 11 12 11 10 9 9 9 7 7 6 5 3 3 3 3 3
5 7 5 4 5 6 5 2 6 7 11 12 14 13 11 11 11 11 11 11 10 10 10 10 10 11 12 11 11 11 10 9 8 7 7 6 6 5 4 4 3 3 3 3
5 6 3 4 8 6 5 1 6 7 9 8 6 4 5 7 10 11 11 10 11 10 11 10 10 10 11 11 11 10 9 8 7 7 6 6 6 5 4 3 2 2 3 3
5 4 2 8 9 5 2 3 6 8 9 9 8 9 9 9 10 11 11 11 11 11 10 9 9 10 11 11 10 9 9 8 8 7 7 6 5 4 3 3 3 3 3 2
4 3 2 11 6 5 5 5 8 10 11 14 14 13 12 11 11 11 11 11 11 10 10 9 9 10 10 9 9 9 9 9 8 6 6 6 5 4 3 2 1 2 3 4
4 4 4 6 7 6 4 6 8 9 12 15 15 13 12 12 11 11 11 11 10 11 10 9 8 9 9 9 8 8 8 7 7 6 5 4 3 2 2 2 4 4 4 5
2 3 4 5 6 7 7 7 7 10 12 13 15 14 13 12 12 11 11 10 9 10 10 8 7 7 7 7 6 6 6 5 4 4 3 3 1 2 3 4 5 5 5 6
4 1 1 4 6 6 5 6 7 9 10 13 15 15 14 13 13 12 10 9 9 9 9 8 7 6 6 5 4 4 4 3 2 2 2 1 1 3 4 5 6 6 7 7
3 4 3 3 5 5 3 3 6 10 12 13 13 15 15 13 12 11 11 10 9 9 9 8 7 6 5 4 3 3 2 2 1 1 1 1 2 2 4 2 5 1 3 6
3 4 4 3 3 3 2 3 7 10 13 14 13 14 15 14 12 11 11 10 10 9 8 8 7 7 6 5 4 3 1 1 1 1 2 2 3 4 1 4 6 5 3 1
1 1 1 2 2 2 4 7 11 13 14 15 15 15 14 13 12 11 10 10 9 9 8 7 7 6 4 3 1 0 1 1 2 2 3 4 4 4 4 3 2 2 4 2
2 2 3 4 5 6 9 12 14 14 15 16 16 15 14 13 12 11 10 9 8 8 7 6 5 4 3 2 2 3 4 3 3 4 3 3 3 3 3 4 4 4 5 5
6 7 7 8 9 10 11 14 15 16 17 17 16 14 13 12 11 10 9 8 7 7 6 4 4 4 4 4 4 3 1 3 4 4 2 2 3 3 3 4 5 5 5 6
9 9 10 11 11 12 13 14 16 17 17 16 15 14 12 12 11 10 9 8 7 6 5 4 5 5 4 4 5 4 3 3 4 2 3 3 3 3 4 5 5 5 4 5
9 11 11 13 14 15 16 16 16 16 15 15 14 12 11 10 10 9 8 7 6 5 5 5 6 5 4 5 4 4 3 3 3 4 4 4 3 4 4 4 4 5 4 4
13 13 14 14 15 16 16 16 16 15 14 13 12 11 10 10 10 8 7 6 5 5 5 6 3 3 4 4 5 2 3 3 4 4 4 3 2 4 4 4 4 5 5 5
15 15 16 16 15 15 15 15 14 13 12 12 12 11 11 10 9 8 6 6 6 6 5 5 4 5 4 4 6 3 3 3 4 4 3 3 3 3 4 4 5 5 5 5
16 17 17 16 15 15 14 14 13 12 12 11 11 11 10 9 8 6 5 6 6 4 3 2 5 6 5 4 3 4 4 4 4 4 3 3 3 3 4 5 5 5 5 5
16 17 17 16 15 14 13 12 12 12 12 11 11 11 10 9 7 6 5 6 6 3 4 7 7 7 6 5 5 5 5 4 4 4 4 4 4 4 5 5 5 5 5 6
16 16 16 15 15 14 12 12 12 12 12 11 10 9 8 7 5 5 7 5 5 3 5 8 6 3 9 3 6 6 6 5 4 4 4 5 5 5 5 5 5 6 6 6
16 16 15 14 14 13 12 12 12 11 11 10 9 8 8 6 5 6 7 7 3 2 6 6 1 5 8 5 6 6 6 5 5 5 5 5 6 6 6 6 6 6 6 7
16 15 15 15 14 12 12 12 12 12 11 9 9 8 6 5 6 7 6 7 5 1 5 6 4 7 2 6 6 7 7 7 6 5 6 5 6 6 6 6 6 6 6 6
15 14 13 13 11 10 11 11 11 10 9 9 8 7 6 6 7 7 6 5 5 2 3 4 4 1 5 6 7 6 6 6 5 5 6 6 6 6 6 6 6 6 6 7
15 13 12 12 11 11 11 11 10 10 9 9 8 8 7 7 7 7 6 4 4 4 5 5 5 6 6 7 7 6 6 6 6 6 6 6 6 6 6 6 6 6 6 7
Wind_Direction
70 81 104 107 80 117 233 274 263 196 157 157 151 139 130 123 118 110 102 96 92 90 90 89 89 88 90 93 95 99 100 98 97 96 95 94 93 92 92 94 99 105 107 103
201 188 263 137 50 47 44 33 77 133 111 122 128 124 124 125 122 114 109 105 102 99 96 93 94 97 98 99 101 103 102 101 100 98 94 93 93 93 95 97 101 100 89 73
247 260 270 235 14 354 -0 25 5 328 109 135 128 111 106 114 117 115 112 109 104 101 99 100 103 108 108 108 106 104 103 102 102 102 100 101 105 106 108 110 103 85 61 51
261 248 249 74 41 6 344 17 11 51 103 114 102 84 60 64 96 102 105 104 102 103 103 104 105 106 109 109 108 106 104 104 108 112 114 118 117 114 112 100 84 73 55 40
270 259 246 114 33 358 337 28 46 91 99 106 115 99 60 46 71 88 96 100 101 104 107 108 110 113 114 112 112 112 112 115 120 123 123 122 114 106 94 87 78 64 49 22
270 270 266 40 6 338 290 96 65 104 114 127 152 127 83 67 83 92 96 100 103 106 107 106 110 116 116 114 112 113 117 117 115 112 109 104 98 91 86 81 65 34 40 13
282 269 68 18 340 315 302 49 75 94 91 79 69 83 106 100 94 97 101 103 105 104 101 102 109 113 110 111 116 120 119 112 106 102 98 95 93 86 79 66 48 25 15 6
323 294 44 10 13 34 44 68 90 92 95 99 104 105 106 105 105 105 104 103 102 100 99 100 107 113 116 120 124 124 118 109 102 97 94 99 98 90 69 31 35 20 11 359
3 28 50 40 54 55 58 77 85 101 112 119 120 119 118 114 111 109 107 105 106 109 110 117 127 131 126 128 131 128 118 107 103 102 98 97 95 86 63 20 8 6 2 357
316 82 69 66 65 53 54 67 84 109 124 127 126 127 123 118 115 112 110 113 118 120 120 120 125 123 122 128 133 130 121 115 115 115 121 110 51 23 14 11 7 2 359 353
276 288 153 96 55 37 49 75 94 107 117 125 129 127 123 121 120 119 121 124 123 117 111 108 107 105 111 122 135 134 130 127 127 114 85 86 51 25 3 31 28 351 353 352
327 37 341 11 20 10 22 89 111 117 115 120 124 124 123 122 124 126 123 118 111 105 99 95 93 89 88 99 119 132 146 148 144 114 62 327 326 154 122 50 116 131 332 335
359 8 350 347 358 8 30 102 120 121 121 119 120 123 124 127 129 123 117 112 106 100 96 92 90 86 82 87 99 103 88 57 347 354 352 335 338 342 41 154 173 179 182 337
18 328 347 33 31 46 101 111 112 112 115 118 123 126 130 130 127 122 115 110 106 102 100 98 94 86 77 75 73 10 294 197 283 313 325 336 345 346 351 4 81 125 157 104
92 68 73 82 87 97 109 115 114 115 119 123 129 134 135 130 125 118 115 114 113 108 101 93 82 68 37 7 336 312 301 311 313 322 321 338 346 353 13 24 30 34 36 44
121 108 104 102 104 112 119 120 119 124 128 132 136 136 131 124 119 117 118 120 114 97 85 69 49 29 8 353 324 298 291 69 321 306 326 350 1 18 35 39 44 40 28 15
135 126 119 116 117 120 124 127 128 131 134 135 133 131 128 125 122 119 115 107 97 89 74 49 25 5 3 8 340 340 8 119 191 271 23 25 32 45 48 49 48 43 37 33
130 127 127 126 126 127 128 129 130 132 132 131 132 133 132 128 123 120 117 116 112 98 67 38 18 357 15 25 11 6 31 43 54 49 54 51 52 63 62 57 47 37 32 42
131 129 128 129 129 129 130 131 130 129 130 134 133 127 122 119 121 123 125 123 115 88 51 33 355 3 48 31 335 33 45 64 73 69 75 108 96 71 60 50 43 36 32 28
135 134 135 136 135 132 131 130 130 131 133 131 127 125 123 122 125 125 121 100 64 47 41 19 22 43 44 36 324 25 55 62 70 74 72 82 83 74 59 47 41 35 29 28
141 141 143 143 139 136 134 134 134 134 135 136 133 129 127 127 129 133 132 106 82 43 62 92 45 46 41 19 319 41 66 74 74 69 70 78 80 71 59 50 44 37 30 27
147 147 147 144 142 138 137 137 136 136 136 135 132 131 133 135 132 118 82 77 87 355 28 62 59 46 7 334 53 61 72 81 81 78 75 76 77 72 63 52 47 42 38 35
151 150 149 148 145 141 140 139 138 137 138 139 140 144 144 139 140 132 117 100 87 43 54 65 62 355 306 23 63 69 73 75 77 81 82 82 80 75 70 64 57 52 46 39
155 155 155 152 148 147 147 145 141 141 142 140 139 140 141 144 135 107 103 108 77 31 75 90 105 292 290 59 62 65 70 74 80 83 85 85 82 79 76 69 65 61 56 49
160 160 158 158 159 156 149 146 146 148 146 138 138 146 152 140 131 124 118 112 121 159 104 124 206 276 349 57 61 65 64 56 57 73 87 83 83 82 78 72 66 63 58 50
164 166 165 171 167 159 157 159 160 159 155 149 149 150 144 134 133 138 137 124 111 99 83 105 108 159 63 66 66 69 81 94 90 84 84 87 84 82 79 77 73 64 60 53
170 168 169 174 171 170 167 167 165 166 164 158 152 154 152 151 152 151 144 128 111 90 82 82 75 72 69 69 73 77 78 79 81 88 92 90 89 88 87 84 77 72 68 62
Height
1469 1466 1465 1465 1465 1462 1461 1459 1459 1461 1466 1477 1484 1491 1496 1499 1502 1504 1507 1509 1510 1512 1513 1515 1517 1518 1520 1521 1522 1524 1525 1527 1529 1531 1533 1535 1537 1538 1540 1541 1541 1542 1542 1542
1474 1471 1469 1470 1469 1468 1468 1466 1465 1466 1474 1479 1486 1492 1497 1500 1503 1506 1508 1511 1513 1514 1516 1518 1519 1521 1523 1524 1526 1527 1528 1530 1531 1533 1535 1537 1538 1539 1540 1541 1541 1541 1541 1541
1475 1473 1473 1475 1476 1475 1473 1472 1473 1472 1477 1483 1490 1495 1499 1502 1504 1507 1510 1512 1514 1516 1517 1519 1521 1523 1525 1527 1528 1530 1531 1532 1534 1535 1536 1538 1539 1539 1540 1541 1541 1541 1540 1540
1475 1479 1488 1483 1482 1482 1480 1481 1481 1480 1483 1488 1495 1500 1503 1506 1507 1509 1511 1513 1515 1517 1519 1521 1523 1525 1527 1528 1530 1531 1533 1534 1535 1537 1538 1539 1540 1540 1541 1541 1541 1540 1539 1538
1479 1479 1477 1483 1485 1485 1484 1485 1488 1488 1492 1496 1499 1502 1508 1509 1510 1511 1513 1514 1517 1519 1521 1523 1525 1527 1528 1530 1531 1533 1534 1536 1537 1539 1539 1540 1541 1541 1541 1541 1540 1540 1538 1537
1483 1488 1489 1491 1489 1489 1488 1490 1493 1493 1495 1498 1500 1501 1513 1514 1513 1514 1515 1517 1519 1521 1523 1525 1527 1529 1530 1532 1533 1535 1537 1538 1540 1540 1541 1541 1541 1541 1541 1540 1540 1540 1538 1536
1486 1488 1488 1494 1492 1488 1493 1499 1498 1498 1500 1501 1504 1508 1515 1516 1517 1518 1519 1520 1522 1524 1526 1528 1529 1531 1532 1533 1535 1537 1539 1540 1541 1541 1541 1541 1541 1541 1541 1541 1540 1538 1537 1535
1490 1492 1499 1498 1493 1497 1502 1501 1501 1502 1504 1506 1509 1512 1515 1517 1519 1521 1522 1524 1525 1527 1528 1530 1531 1533 1534 1536 1538 1540 1541 1541 1542 1542 1543 1542 1542 1541 1541 1541 1540 1538 1536 1534
1498 1502 1503 1502 1502 1504 1503 1503 1504 1505 1507 1509 1511 1515 1518 1520 1522 1524 1525 1527 1529 1530 1531 1533 1535 1536 1537 1539 1540 1541 1542 1542 1543 1543 1543 1543 1543 1542 1542 1540 1539 1537 1535 1533
1497 1499 1503 1504 1505 1505 1505 1506 1507 1507 1509 1511 1513 1516 1519 1522 1525 1527 1529 1530 1532 1533 1535 1536 1538 1539 1540 1541 1542 1543 1543 1543 1543 1543 1543 1543 1543 1542 1541 1540 1538 1536 1534 1532
1498 1500 1503 1505 1507 1508 1508 1508 1509 1510 1511 1513 1515 1518 1521 1524 1527 1529 1532 1534 1535 1537 1538 1539 1540 1541 1542 1542 1542 1543 1543 1544 1544 1544 1544 1543 1543 1542 1541 1539 1537 1535 1533 1530
1498 1504 1505 1507 1509 1509 1509 1509 1510 1511 1513 1516 1518 1520 1524 1527 1530 1533 1535 1537 1539 1540 1541 1542 1542 1543 1543 1543 1543 1543 1544 1544 1544 1544 1543 1543 1542 1540 1538 1537 1535 1532 1530 1528
1506 1507 1507 1508 1508 1508 1509 1510 1511 1513 1515 1517 1520 1523 1526 1530 1533 1536 1538 1540 1541 1543 1543 1544 1545 1545 1545 1545 1545 1544 1544 1544 1544 1543 1543 1542 1541 1539 1538 1535 1533 1531 1529 1527
1507 1507 1507 1508 1508 1508 1509 1510 1512 1514 1517 1520 1523 1527 1531 1534 1537 1539 1541 1543 1544 1545 1546 1546 1547 1547 1547 1546 1545 1545 1544 1543 1543 1542 1542 1541 1539 1538 1537 1536 1534 1532 1530 1527
1506 1507 1507 1508 1508 1508 1510 1511 1514 1517 1520 1524 1528 1531 1535 1538 1540 1542 1544 1546 1547 1547 1548 1548 1548 1548 1547 1546 1545 1544 1543 1543 1542 1541 1540 1539 1538 1537 1536 1535 1534 1532 1531 1528
1507 1507 1508 1509 1510 1511 1512 1515 1517 1521 1524 1528 1532 1536 1539 1541 1543 1545 1547 1548 1549 1549 1550 1550 1549 1548 1547 1546 1544 1543 1542 1540 1540 1540 1539 1538 1537 1537 1536 1535 1534 1532 1530 1528
1507 1508 1510 1511 1513 1514 1516 1519 1522 1525 1529 1533 1536 1539 1542 1544 1546 1547 1549 1550 1550 1551 1551 1550 1549 1548 1546 1545 1543 1542 1541 1540 1539 1539 1538 1538 1537 1537 1536 1535 1534 1532 1531 1528
1508 1510 1512 1514 1516 1518 1521 1524 1527 1530 1534 1537 1540 1542 1544 1546 1548 1549 1551 1552 1552 1552 1552 1551 1549 1547 1546 1544 1543 1541 1540 1540 1539 1539 1538 1538 1538 1537 1537 1536 1535 1533 1532 1530
1509 1512 1514 1517 1520 1522 1525 1528 1531 1534 1538 1540 1543 1545 1547 1548 1550 1551 1552 1553 1553 1553 1552 1550 1548 1547 1545 1544 1542 1542 1541 1540 1540 1539 1539 1538 1538 1538 1537 1536 1535 1534 1533 1531
1512 1514 1517 1520 1524 1526 1529 1532 1535 1538 1540 1543 1545 1547 1549 1550 1552 1553 1554 1554 1554 1553 1552 1550 1548 1547 1545 1543 1542 1542 1541 1540 1540 1540 1539 1539 1539 1538 1538 1537 1536 1535 1534 1532
1513 1516 1520 1523 1526 1529 1532 1535 1537 1540 1543 1545 1547 1549 1551 1552 1554 1554 1555 1555 1555 1553 1552 1550 1549 1547 1545 1543 1542 1542 1541 1541 1541 1540 1540 1539 1539 1539 1538 1538 1537 1536 1535 1534
1515 1518 1522 1525 1528 1532 1535 1537 1540 1542 1544 1547 1549 1551 1552 1554 1555 1556 1556 1556 1555 1553 1553 1552 1549 1546 1545 1544 1544 1543 1542 1541 1541 1541 1540 1540 1540 1539 1539 1538 1538 1537 1536 1535
1517 1520 1524 1527 1530 1533 1536 1539 1542 1544 1546 1548 1550 1552 1554 1555 1556 1556 1557 1557 1556 1554 1554 1552 1549 1547 1546 1546 1545 1544 1543 1542 1542 1542 1541 1541 1540 1540 1540 1539 1538 1538 1537 1536
1518 1521 1525 1529 1532 1535 1538 1540 1543 1545 1548 1550 1552 1553 1554 1556 1557 1557 1557 1556 1556 1556 1555 1552 1550 1549 1548 1549 1547 1546 1545 1544 1543 1543 1542 1542 1542 1541 1541 1540 1540 1539 1539 1538
1518 1522 1526 1529 1533 1536 1539 1541 1544 1547 1549 1551 1552 1554 1555 1557 1557 1558 1558 1558 1557 1557 1556 1554 1552 1551 1552 1551 1549 1548 1546 1545 1544 1544 1543 1543 1543 1543 1542 1542 1541 1541 1541 1540
1518 1522 1525 1529 1532 1535 1538 1541 1544 1547 1549 1551 1553 1554 1556 1556 1557 1558 1559 1560 1559 1558 1558 1557 1555 1554 1554 1552 1551 1549 1548 1547 1546 1546 1545 1545 1544 1544 1543 1543 1542 1542 1542 1542
1518 1521 1525 1529 1532 1535 1538 1541 1543 1546 1548 1550 1552 1554 1556 1557 1558 1560 1561 1561 1561 1560 1559 1559 1558 1557 1555 1554 1552 1551 1550 1549 1548 1547 1547 1546 1546 1545 1545 1544 1544 1544 1544 1544